Weather Service Report


952 
ASUS44 KSJT 132111
RWRSJT
WEST CENTRAL TEXAS REGIONAL WEATHER ROUNDUP
NATIONAL WEATHER SERVICE SAN ANGELO TX
300 PM CST SAT FEB 13 2016

NOTE: "FAIR" INDICATES FEW OR NO CLOUDS BELOW 12,000 FEET WITH NO
SIGNIFICANT WEATHER AND/OR OBSTRUCTIONS TO VISIBILITY.

TXZ049-054-064>066-071>073-076>078-098-099-113-114-127-128-139-140-
154-155-168>170-132200
...LOCATIONS ACROSS WEST CENTRAL TEXAS...
  
CITY           SKY/WX    TMP DP  RH WIND       PRES   REMARKS
SAN ANGELO     SUNNY     79  43  27 S15G23    30.12F                  
ABILENE        SUNNY     73  44  35 S18G25    30.14F                  
DYESS AFB      SUNNY     73  46  38 S18G25    30.11F                  
JUNCTION       SUNNY     76  34  21 S15G24    30.16F                  
SWEETWATER     SUNNY     74  40  29 S16G24    30.15F                  
BROWNWOOD      SUNNY     73  45  35 S10G17    30.16F                  
COLEMAN        CLEAR     74  44  33 S14G21    30.15F                  
SONORA         SUNNY     75  41  29 SE15      30.19F                  
OZONA          FAIR      73  43  33 S15G25    30.17F                  
BRADY          NOT AVBL                                               
$$

TEXAS PANHANDLE/OKLAHOMA PANHANDLE
  
CITY           SKY/WX    TMP DP  RH WIND       PRES   REMARKS
AMARILLO       CLOUDY    69  33  26 S28G35    30.04F                  
BORGER         SUNNY     69  35  28 SW16G28   30.01F                  
CANADIAN       SUNNY     61  34  36 S17G26    30.04F                  
DALHART        SUNNY     76  23  14 SW21G30   29.98F                  
DUMAS          CLOUDY    70  31  23 SW26      29.99F                  
GUYMON         NOT AVBL                                               
HEREFORD       NOT AVBL                                               
PAMPA          CLEAR     63  36  35 S23       30.03F                  
PERRYTON       SUNNY     64  36  35 S18G26    30.00F                  
$$

SOUTHERN PANHANDLE/SOUTH PLAINS/ROLLING PLAINS
  
CITY           SKY/WX    TMP DP  RH WIND       PRES   REMARKS
LUBBOCK        PTSUNNY   68  35  29 S20G29    30.09F                  
SNYDER           N/A     73  43  34 S18       30.12F                  
CHILDRESS      SUNNY     63  37  38 S20G26    30.11F                  
SEMINOLE       CLEAR     72  35  26 S12       30.12F                  
$$

PERMIAN BASIN
  
CITY           SKY/WX    TMP DP  RH WIND       PRES   REMARKS
MIDLAND        SUNNY     74  37  26 S16G24    30.11F                  
ODESSA         SUNNY     74  36  25 S15       30.12F                  
WINK           SUNNY     74  28  18 S7        30.09F                  
$$

FAR WEST/SOUTHWEST MOUNTAINS/TRANS PECOS
  
CITY           SKY/WX    TMP DP  RH WIND       PRES   REMARKS
ALPINE         CLEAR     75  13   9 S18       30.23F                  
DRYDEN           N/A     75  45  34 S14G22    30.13F                  
EL PASO        MOSUNNY   74  12   9 W6        30.12F                  
FORT STOCKTON  SUNNY     79  26  14 VRB3      30.09F                  
GUADALUPE PASS SUNNY     73  14  10 W17G23    30.20F                  
MARFA          SUNNY     72  15  11 S10G23    30.21F                  
PECOS          CLEAR     73  31  22 E7        30.09F                  
$$

DALLAS/FORT WORTH METROPLEX
  
CITY           SKY/WX    TMP DP  RH WIND       PRES   REMARKS
DFW AIRPORT    MOSUNNY   65  37  35 S10       30.22F                  
FTW MEACHAM    SUNNY     67  41  38 SE12G21   30.21F                  
DAL-EXECUTIVE  SUNNY     65  39  38 SE12      30.22F                  
GRAND PRAIRIE  SUNNY     64  39  39 SE10      30.24F                  
ADDISON        NOT AVBL                                               
MESQUITE       CLEAR     64  36  34 E10G16    30.25F                  
LANCASTER      CLEAR     64  35  34 SE12      30.25F                  
$$

NORTH CENTRAL TEXAS
  
CITY           SKY/WX    TMP DP  RH WIND       PRES   REMARKS
SHRMAN/DENISON CLEAR     61  34  36 E9G16     30.25F                  
GAINESVILLE    SUNNY     60  37  41 SE12G17   30.23F                  
BRIDGEPORT     CLEAR     66  43  43 SE9       30.22F                  
DENTON         SUNNY     63  38  39 SE13G20   30.22F                  
WAXAHACHIE     CLEAR     65  42  43 E8        30.25F                  
GRANBURY       CLEAR     69  44  39 SE9G16    30.21F                  
$$

WESTERN NORTH TEXAS
  
CITY           SKY/WX    TMP DP  RH WIND       PRES   REMARKS
WICHITA FALLS  SUNNY     64  36  35 S10       30.17F                  
VERNON         CLEAR     61  29  28 S12       30.16F                  
BRECKENRIDGE   CLEAR     72  41  33 S10G18    30.15F                  
COMANCHE       SUNNY     74  46  37 S13       30.18F                  
$$

CENTRAL AND SOUTH CENTRAL TEXAS
  
CITY           SKY/WX    TMP DP  RH WIND       PRES   REMARKS
AUSTIN/BERGSTM PTSUNNY   74  54  49 S15       30.22F                  
WACO           MOSUNNY   71  49  45 S14       30.22F                  
HILLSBORO      PTCLDY    70  45  40 SE10G18   30.22F                  
TEMPLE         MOSUNNY   72  55  55 S17       30.22F                  
KILLEEN-GRAY   SUNNY     73  48  40 S12G21    30.19F                  
FORT HOOD      SUNNY     74  48  40 S10G18    30.19F                  
GEORGETOWN     SUNNY     73  52  46 S13G18    30.21F                  
LAGO VISTA     FAIR      73  50  43 SE13G18   30.22F                  
SAN MARCOS     MOSUNNY   73  52  46 S9G18     30.23F                  
NEW BRAUNFELS  MOSUNNY   75  51  43 S15       30.21F                  
RANDOLPH AFB   SUNNY     73  52  48 S13       30.21F                  
SAN ANTONIO    MOSUNNY   73  52  47 S9G18     30.22F                  
STINSON        SUNNY     75  52  44 S8        30.20F                  
PLEASANTON     NOT AVBL                                               
LA GRANGE      SUNNY     73  58  60 S10       30.23F                  
GIDDINGS       MOCLDY    70  55  58 S7        30.27F                  
$$

EAST TEXAS
  
CITY           SKY/WX    TMP DP  RH WIND       PRES   REMARKS
PARIS          SUNNY     57  30  35 SE13      30.30F                  
CLARKSVILLE    NOT AVBL                                               
TYLER          SUNNY     64  35  34 SE14      30.28F                  
LONGVIEW       SUNNY     59  34  39 E10       30.30F                  
PALESTINE      CLOUDY    67  40  37 SE8       30.28F                  
NACOGDOCHES    SUNNY     64  37  36 SE7       30.29F                  
$$

TEXAS HILL COUNTRY AND EDWARDS PLATEAU
  
CITY           SKY/WX    TMP DP  RH WIND       PRES   REMARKS
LLANO          CLEAR     77  43  29 S13       30.21F                  
HORSESHOE BAY  FAIR      75  49  38 S10G17    30.19F                  
KERRVILLE      SUNNY     72  45  38 S10       30.22F                  
FREDERICKSBRG  SUNNY     72  43  34 S12       30.20F                  
ROCKSPRINGS    CLEAR     72  37  28 S15       30.21F                  
HONDO          SUNNY     74  47  38 SE9       30.22F                  
UVALDE         CLEAR     73  50  44 SE8       30.20F                  
DEL RIO        SUNNY     78  46  32 SE16      30.14F                  
$$

SOUTHEAST TEXAS
  
CITY           SKY/WX    TMP DP  RH WIND       PRES   REMARKS
COLLEGE STN    CLOUDY    71  56  58 SE9       30.25F                  
CALDWELL       MOCLDY    72  54  53 S12       30.27F                  
CROCKETT       MOCLDY    68  41  37 SE9       30.30F                  
BRENHAM        CLOUDY    75  56  50 SW9       30.25F                  
HUNTSVILLE     PTSUNNY   70  50  49 SE8G17    30.26F                  
CONROE         CLOUDY    69  48  47 SE9       30.28F                  
HOUSTON BUSH   MOSUNNY   66  50  56 SE12G21   30.29F                  
HOUSTON HOBBY  MOSUNNY   66  53  63 SE12      30.29F                  
PERLAND        CLOUDY    68  53  58 SE10      30.31S                  
WHARTON        PTCLDY    75  56  51 S12G17    30.26F                  
$$

THE UPPER TEXAS COAST
  
CITY           SKY/WX    TMP DP  RH WIND       PRES   REMARKS
ORANGE         CLOUDY    64  38  38 E6        30.34S                  
PORT ARTHUR    CLOUDY    63  44  50 SE10      30.32F                  
GALVESTON      CLOUDY    62  54  74 E14       30.31F                  
ANGLETON         N/A     66  60  81 SE10      30.29F                  
BAY CITY       PTCLDY    74  58  56 S10G18    30.26F                  
$$

TEXAS COASTAL BEND, RIO GRANDE PLAINS DEEP SOUTH TEXAS
  
CITY           SKY/WX    TMP DP  RH WIND       PRES   REMARKS
VICTORIA       MOSUNNY   74  59  59 SE15      30.25F                  
BEEVILLE       FAIR      78  51  39 SE14G22   30.22F                  
ROCKPORT       SUNNY     73  59  61 SE12      30.25F                  
PORT ARANSAS   PTCLDY    69  61  75 E8        30.25F                  
PORT LAVACA    PTCLDY    71  60  69 SE16      30.26F                  
CORPUS CHRISTI MOSUNNY   75  52  44 SE20      30.23F                  
KINGSVILLE NAS LGT RAIN  76  56  49 SE15G22   30.22F                  
COTULLA        SUNNY     80  45  28 SE16G23   30.18F                  
LAREDO         SUNNY     81  48  31 SE14      30.17F                  
BROWNSVILLE    PTSUNNY   75  56  51 SE12G21   30.23F                  
PORT ISABEL    MOSUNNY   73  58  59 E18       30.23F                  
HEBBRONVILLE   NOT AVBL                                               
MCALLEN        SUNNY     83  52  34 SE12G21   30.19F                  
WESLACO        MOSUNNY   80  53  39 SE12G23   30.19F                  
FALFURRIAS     CLEAR     79  50  35 S3        30.19F                  
EDINBURG       CLEAR     82  49  31 SE12G18   30.20F                  
$$
  

Return to Home page


Western Regional Climate Center, wrcc@dri.edu